Weather History for PHLI - July, 2014

Change the Weather History Date:

Sunday, July 6, 2014

  Actual Average Record
Temperature  
Mean Temperature 79 °F 79 °F  
Max Temperature 84 °F 84 °F 88 °F (1981)
Min Temperature 73 °F 74 °F 67 °F (1990)
Degree Days  
Heating Degree Days 0 0  
Month to date heating degree days 0 0  
Since 1 June heating degree days 0 0  
Since 1 July heating degree days 0 0  
Cooling Degree Days 14 14  
Month to date cooling degree days 89 84  
Year to date cooling degree days 1690 1717  
Since 1 June cooling degree days 469 478  
Growing Degree Days 28 (Base 50)    
Moisture  
Dew Point 70 °F    
Average Humidity 78    
Maximum Humidity 93    
Minimum Humidity 62    
Precipitation  
Precipitation 0.09 in 0.06 in 0.83 in (1980)
Month to date precipitation 0.12 0.33  
Year to date precipitation 19.04 17.78  
Snow  
Snow 0.00 in - - ()
Month to date snowfall 0.0  
Since 1 June snowfall 0.0  
Since 1 July snowfall 0.0  
Snow Depth 0.00 in    
Sea Level Pressure  
Sea Level Pressure 30.04 in    
Wind  
Wind Speed 13 mph (ENE)    
Max Wind Speed 23 mph    
Max Gust Speed 26 mph    
Visibility 10 miles    
Events Rain    
T = Trace of Precipitation, MM = Missing Value Source: NWS Daily Summary

Daily Weather History Graph

Daily Weather History Graph

Search for Another Location

Airport or City:

Trip Planner

Search our weather history database for the weather conditions in past years. The results will help you decide how hot, cold, wet, or windy it might be!

Date:

Astronomy

Jul. 06, 2014 Rise Set
Actual Time 5:59 AM HST 7:24 PM HST
Civil Twilight 5:34 AM HST 7:49 PM HST
Nautical Twilight 5:04 AM HST 8:19 PM HST
Astronomical Twilight 4:34 AM HST 8:49 PM HST
Moon 1:59 PM HST (7/6) 12:58 AM HST (7/6)
Length of Visible Light 14h 15m
Length of Day
13h 25m
Waxing Gibbous, 64% of the Moon is Illuminated
Jul 6
Waxing Gibbous
Jul 12
Full
Jul 18
Last Quarter
Jul 26
New
Aug 3
First Quarter

Hourly Weather History & Observations

Time (HST) Temp. Heat Index Dew Point Humidity Pressure Visibility Wind Dir Wind Speed Gust Speed Precip Events Conditions
12:53 AM 77.0 °F - 68.0 °F 74% 30.04 in 10.0 mi ENE 15.0 mph - N/A   Overcast
1:53 AM 77.0 °F - 68.0 °F 74% 30.03 in 10.0 mi NE 15.0 mph - N/A   Overcast
2:53 AM 75.9 °F - 71.1 °F 85% 30.02 in 10.0 mi ENE 13.8 mph - 0.01 in Rain Light Rain
3:00 AM 75.2 °F - 71.6 °F 89% 30.03 in 10.0 mi ENE 12.7 mph - N/A   Overcast
3:53 AM 73.0 °F - 70.0 °F 90% 30.02 in 10.0 mi NNE 13.8 mph 20.7 mph 0.00 in   Mostly Cloudy
4:24 AM 75.2 °F - 71.6 °F 89% 30.02 in 10.0 mi NNE 9.2 mph - 0.00 in   Mostly Cloudy
4:51 AM 73.4 °F - 71.6 °F 94% 30.03 in 8.0 mi ENE 8.1 mph - 0.02 in Rain Light Rain
4:53 AM 73.9 °F - 72.0 °F 93% 30.02 in 10.0 mi ENE 6.9 mph - 0.02 in Rain Light Rain
5:10 AM 73.4 °F - 71.6 °F 94% 30.03 in 10.0 mi ENE 11.5 mph - 0.00 in   Overcast
5:17 AM 75.2 °F - 71.6 °F 89% 30.03 in 10.0 mi East 18.4 mph 23.0 mph 0.00 in   Overcast
5:32 AM 73.4 °F - 71.6 °F 94% 30.03 in 10.0 mi East 20.7 mph - 0.00 in   Mostly Cloudy
5:42 AM 73.4 °F - 71.6 °F 94% 30.04 in 10.0 mi East 15.0 mph - 0.00 in   Mostly Cloudy
5:53 AM 73.9 °F - 71.1 °F 91% 30.03 in 10.0 mi East 15.0 mph - 0.00 in   Overcast
6:03 AM 73.4 °F - 69.8 °F 88% 30.04 in 10.0 mi East 15.0 mph - N/A   Overcast
6:49 AM 73.4 °F - 69.8 °F 88% 30.05 in 10.0 mi NE 4.6 mph - N/A   Overcast
6:53 AM 73.9 °F - 71.1 °F 91% 30.05 in 10.0 mi NNE 5.8 mph - N/A   Overcast
7:23 AM 73.4 °F - 71.6 °F 94% 30.06 in 4.0 mi NE 19.6 mph - 0.00 in Rain Light Rain
7:45 AM 75.2 °F - 69.8 °F 83% 30.06 in 3.0 mi NE 11.5 mph - 0.06 in Rain Light Rain
7:53 AM 75.9 °F - 71.1 °F 85% 30.06 in 10.0 mi ENE 13.8 mph - 0.06 in   Overcast
8:53 AM 78.1 °F - 69.1 °F 74% 30.06 in 10.0 mi East 16.1 mph - 0.00 in   Mostly Cloudy
9:53 AM 81.0 °F 83.0 °F 66.0 °F 60% 30.07 in 10.0 mi ENE 15.0 mph - N/A   Partly Cloudy
10:53 AM 82.9 °F 86.5 °F 69.1 °F 63% 30.06 in 10.0 mi NE 16.1 mph - N/A   Clear
11:53 AM 82.9 °F 85.8 °F 68.0 °F 60% 30.05 in 10.0 mi ENE 13.8 mph - N/A   Scattered Clouds
12:06 PM 82.4 °F 86.3 °F 69.8 °F 66% 30.06 in 10.0 mi NE 11.5 mph - N/A   Mostly Cloudy
12:23 PM 82.4 °F 86.3 °F 69.8 °F 66% 30.05 in 10.0 mi ENE 13.8 mph - N/A   Scattered Clouds
12:53 PM 82.9 °F 87.0 °F 70.0 °F 65% 30.04 in 10.0 mi NE 12.7 mph - N/A   Scattered Clouds
1:53 PM 82.9 °F 87.5 °F 71.1 °F 67% 30.03 in 10.0 mi NE 15.0 mph - N/A   Clear
2:53 PM 82.9 °F 87.0 °F 70.0 °F 65% 30.01 in 10.0 mi NE 13.8 mph - N/A   Clear
3:53 PM 82.0 °F 85.9 °F 70.0 °F 67% 30.00 in 10.0 mi NE 13.8 mph - N/A   Partly Cloudy
4:53 PM 81.0 °F 84.1 °F 69.1 °F 67% 30.00 in 10.0 mi NE 11.5 mph - N/A   Partly Cloudy
5:53 PM 80.1 °F 82.9 °F 69.1 °F 69% 30.00 in 10.0 mi NE 12.7 mph - N/A   Clear
6:53 PM 78.1 °F - 69.1 °F 74% 30.01 in 10.0 mi NE 16.1 mph - N/A   Partly Cloudy
7:53 PM 77.0 °F - 69.1 °F 76% 30.02 in 10.0 mi NE 16.1 mph - N/A   Clear
8:53 PM 77.0 °F - 69.1 °F 76% 30.03 in 10.0 mi NE 15.0 mph - N/A   Clear
9:53 PM 77.0 °F - 68.0 °F 74% 30.04 in 10.0 mi ENE 12.7 mph - N/A   Clear
10:53 PM 77.0 °F - 69.1 °F 76% 30.04 in 10.0 mi ENE 15.0 mph - N/A   Scattered Clouds
11:53 PM 75.9 °F - 69.1 °F 79% 30.04 in 10.0 mi ENE 15.0 mph - N/A   Clear